Total_Precipitation_Accumulation
2.64 2.79 2.57 2.69 2.49 2.61 2.95 3.27 3.32 3.52 3.78 3.73 3.28 3.03 3.08 3.03 2.75 2.70 2.95 3.24 3.29 3.22 3.45 3.57 3.25 3.08 3.01 2.65 2.34 2.21 2.03 1.89 1.68 1.41 1.24 1.15 1.03 0.85 0.67 0.60 0.55 0.54 0.51
2.85 2.94 2.79 2.78 2.51 2.53 2.83 3.19 3.29 3.63 3.72 3.79 3.28 2.93 2.90 2.88 2.62 2.51 2.62 3.14 3.22 3.08 3.20 3.52 3.63 3.55 3.38 3.08 2.78 2.52 2.27 2.06 1.88 1.61 1.34 1.19 1.11 1.04 0.98 0.83 0.72 0.67 0.60
3.08 3.23 3.14 2.77 2.56 2.67 2.89 2.92 3.08 3.59 3.48 3.46 3.35 3.24 3.17 3.00 2.73 2.68 2.61 2.81 2.71 2.82 3.04 3.22 3.51 3.75 3.80 3.69 3.48 3.11 2.78 2.36 2.02 1.69 1.39 1.22 1.15 1.07 1.04 0.98 0.91 0.85 0.74
2.77 3.02 2.78 2.40 2.49 2.71 2.91 2.94 2.94 3.33 3.50 3.55 3.62 3.47 3.30 3.09 2.71 2.62 2.62 2.59 2.57 2.31 2.60 2.95 3.32 3.60 4.01 4.27 4.33 4.17 3.74 3.00 2.36 1.92 1.57 1.41 1.31 1.16 1.01 1.00 1.03 1.00 0.83
1.98 2.28 2.24 2.17 2.19 2.47 2.54 2.26 2.51 2.83 3.09 3.24 3.04 2.96 2.65 2.45 2.33 2.22 2.21 2.14 2.33 2.45 2.57 2.60 2.96 3.24 3.87 4.71 5.23 5.17 4.69 3.85 3.02 2.51 2.17 1.91 1.73 1.46 1.19 1.06 1.09 1.07 0.96
1.83 2.06 2.06 1.89 1.84 2.05 2.15 2.28 2.61 2.70 2.62 2.70 2.39 2.38 2.35 2.13 2.12 2.09 1.93 1.94 2.07 2.03 2.24 2.48 2.81 2.66 3.21 4.10 4.85 5.13 4.99 4.56 3.73 3.06 2.71 2.54 2.41 2.02 1.53 1.32 1.25 1.17 1.08
1.99 2.23 2.02 2.03 1.87 1.91 1.98 2.03 2.27 2.39 2.21 2.38 2.72 2.54 2.23 2.00 1.99 1.92 1.83 1.93 1.95 2.01 2.17 2.54 2.80 2.88 2.79 2.87 3.31 4.06 4.67 4.92 4.68 4.00 3.33 2.94 2.82 2.42 1.87 1.64 1.46 1.35 1.33
1.95 1.87 2.03 1.87 1.78 1.98 1.96 2.03 2.25 2.25 2.04 2.20 2.62 2.77 2.50 2.42 2.01 1.48 1.67 1.78 1.85 2.11 2.17 2.16 2.40 2.86 2.89 3.07 2.50 2.86 3.97 4.69 5.17 5.15 4.44 3.66 3.24 2.78 2.29 2.08 1.86 1.68 1.59
1.64 1.70 1.71 1.66 1.76 1.65 1.85 2.00 2.11 2.32 2.32 2.09 2.08 2.49 2.45 2.38 2.16 1.67 1.44 1.52 1.82 2.11 2.07 2.11 2.15 2.47 2.76 3.15 3.02 2.57 2.84 3.42 4.45 5.41 5.46 4.60 3.59 2.90 2.59 2.49 2.41 2.18 1.96
1.64 1.64 1.60 1.71 1.73 1.58 1.86 1.62 1.77 2.11 2.29 2.13 2.10 2.00 2.04 2.20 2.24 2.09 1.80 1.53 1.68 1.82 1.98 1.96 2.10 2.40 2.66 2.92 2.99 2.42 2.06 2.30 3.23 4.45 5.26 5.22 4.44 3.50 2.99 3.00 3.19 3.02 2.63
1.67 1.48 1.56 1.75 1.79 1.65 1.69 1.69 1.90 1.91 1.99 2.03 2.00 1.96 2.11 2.17 2.00 2.04 2.03 1.88 1.78 1.52 1.67 1.94 2.15 2.30 2.48 2.74 2.98 2.62 2.41 2.19 2.27 2.81 3.51 4.16 4.47 4.14 3.75 3.70 4.01 4.18 3.93
1.59 1.48 1.58 1.86 1.85 1.81 1.76 1.73 1.76 1.80 1.99 2.10 2.04 1.92 2.02 2.13 2.11 2.20 1.98 1.91 1.95 1.73 1.86 2.12 2.20 2.26 2.25 2.44 2.47 2.45 2.33 2.22 2.12 2.10 2.32 2.74 3.28 3.63 3.72 3.94 4.39 4.77 4.87
1.40 1.47 1.55 1.77 1.78 1.80 1.72 1.89 1.92 1.84 1.97 2.03 2.01 1.97 1.90 1.84 1.97 2.14 2.18 2.00 1.97 1.91 2.15 2.15 2.15 2.16 2.09 2.38 2.53 2.46 2.11 2.09 1.92 1.79 1.84 2.03 2.30 2.75 3.18 3.52 4.01 4.50 4.88
1.25 1.29 1.40 1.47 1.56 1.62 1.60 1.99 1.87 1.89 1.98 1.90 1.80 2.13 2.03 1.77 1.94 2.07 2.27 2.47 2.33 2.20 2.28 2.22 2.19 2.17 2.32 2.44 2.51 2.43 2.10 2.11 1.92 1.73 1.61 1.59 1.67 1.88 2.24 2.56 2.88 3.24 3.66
1.31 1.35 1.42 1.62 1.75 1.80 1.84 2.07 1.99 1.95 2.09 1.92 1.90 2.08 2.03 1.96 1.94 1.92 2.27 2.59 2.72 2.52 2.40 2.32 2.10 2.00 2.09 2.21 2.26 1.96 1.82 1.92 1.82 1.68 1.56 1.49 1.47 1.54 1.68 1.82 1.89 1.97 2.12
1.47 1.59 1.66 1.80 1.92 1.87 1.85 2.02 1.98 2.06 2.14 2.04 2.04 2.09 2.03 2.00 2.08 2.01 2.15 2.40 2.62 2.79 2.60 2.16 1.99 1.90 1.89 1.73 1.81 1.61 1.63 1.82 1.70 1.55 1.49 1.48 1.47 1.46 1.45 1.48 1.53 1.56 1.59
1.57 1.64 1.75 1.87 1.89 1.95 2.05 2.12 1.95 2.02 2.13 2.31 2.21 2.19 2.24 2.35 2.31 2.22 2.30 2.37 2.51 2.77 2.72 2.25 2.15 2.15 1.99 1.80 1.73 1.64 1.59 1.67 1.68 1.78 1.62 1.50 1.40 1.33 1.31 1.31 1.33 1.39 1.44
1.80 1.78 1.85 1.90 1.78 1.83 2.04 2.10 2.06 2.05 2.08 2.13 2.33 2.57 2.50 2.53 2.48 2.32 2.41 2.37 2.43 2.71 2.63 2.39 2.40 2.41 2.33 2.12 1.97 1.80 1.63 1.61 1.69 1.89 1.65 1.51 1.43 1.35 1.33 1.32 1.30 1.29 1.30
2.07 2.15 2.14 1.96 1.88 1.88 1.94 2.02 2.12 2.12 2.14 2.21 2.37 2.46 2.49 2.67 2.54 2.43 2.37 2.34 2.43 2.58 2.67 2.48 2.43 2.59 2.48 2.24 2.10 1.84 1.65 1.72 1.56 1.67 1.64 1.56 1.53 1.45 1.40 1.33 1.29 1.27 1.24
2.13 2.26 2.21 2.13 2.08 1.97 1.84 1.80 1.85 1.93 2.10 2.27 2.32 2.24 2.34 2.57 2.61 2.60 2.42 2.39 2.51 2.61 2.65 2.57 2.48 2.59 2.61 2.54 2.37 2.15 2.02 1.87 1.70 1.58 1.64 1.54 1.53 1.47 1.39 1.30 1.24 1.23 1.25
2.07 2.21 2.25 2.26 2.22 2.05 1.79 1.83 1.97 1.96 2.13 2.17 2.10 2.00 2.00 2.23 2.46 2.54 2.30 2.29 2.43 2.46 2.46 2.49 2.48 2.53 2.57 2.71 2.59 2.32 2.09 1.94 1.71 1.54 1.55 1.43 1.38 1.30 1.34 1.35 1.27 1.19 1.13
2.45 2.47 2.39 2.32 2.23 1.87 1.97 2.02 2.00 2.02 2.15 2.16 2.10 2.01 1.89 1.88 1.90 2.04 2.14 2.27 2.40 2.37 2.37 2.52 2.67 2.72 2.70 2.72 2.72 2.52 2.25 2.01 1.82 1.62 1.66 1.64 1.55 1.48 1.33 1.23 1.28 1.21 1.13
2.80 2.82 2.70 2.50 2.32 2.23 2.17 1.94 1.88 1.77 1.82 1.87 1.94 1.93 1.65 1.51 1.62 1.54 1.73 1.91 2.02 2.10 2.13 2.29 2.44 2.55 2.68 2.82 2.86 2.62 2.42 2.21 1.96 1.76 1.76 1.61 1.51 1.48 1.39 1.35 1.44 1.28 1.21
2.75 2.78 2.70 2.54 2.40 2.29 2.16 1.84 1.76 1.55 1.57 1.60 1.65 1.67 1.62 1.54 1.52 1.59 1.61 1.59 1.57 1.64 1.78 1.80 1.90 2.16 2.42 2.62 2.78 2.68 2.58 2.28 1.98 1.75 1.69 1.56 1.41 1.38 1.32 1.36 1.48 1.38 1.26
2.50 2.39 2.33 2.31 2.26 2.26 2.19 1.88 1.71 1.50 1.58 1.59 1.60 1.63 1.66 1.58 1.74 1.65 1.58 1.60 1.61 1.62 1.67 1.73 1.74 1.90 2.15 2.32 2.45 2.53 2.48 2.33 2.05 1.80 1.72 1.72 1.54 1.46 1.40 1.27 1.28 1.37 1.26
2.43 2.35 2.21 2.20 2.17 2.13 2.16 1.82 1.65 1.50 1.59 1.61 1.65 1.65 1.65 1.55 1.59 1.49 1.42 1.53 1.52 1.54 1.63 1.64 1.63 1.63 1.72 2.03 2.37 2.23 2.25 2.29 2.06 1.76 1.52 1.58 1.57 1.60 1.50 1.20 1.07 1.08 1.07